Regional Weather Roundup
Issued by NWS

Home | Current Version | Previous Version | Text Only | Print | Product List | Glossary On
Versions: 1 2 3 4 5 6 7 8 9 10 11 12 13 14 15 16 17 18 19 20 21 22 23 24 25 26 27 28 29 30 31 32 33 34 35 36 37 38 39 40 41 42 43 44 45 46 47 48 49 50
000
ASCA42 TJSJ 272110
RWRPR
PUERTO RICO/U.S. VIRGIN ISLANDS HOURLY WEATHER ROUNDUP
NATIONAL WEATHER SERVICE SAN JUAN PR
500 PM AST WED MAY 27 2015

PRZ001-004-272200-
PUERTO RICO

CITY           SKY/WX    TMP DP  RH WIND       PRES   REMARKS
SAN JUAN LMM   MOSUNNY   82  72  69 NE10      29.94R
PONCE          PTSUNNY   81  70  69 NE12      29.90R
AGUADILLA      PTSUNNY   82  70  65 NE12      29.94S
CEIBA          MOSUNNY   84  70  61 NE9       29.95R
$$

PRZ006-007-272200-
U.S. VIRGIN ISLANDS

CITY           SKY/WX    TMP DP  RH WIND       PRES   REMARKS
CHARLOTTE AMA  MOSUNNY   84  70  61 E12       29.92S
CHRISTIANSTED  MOSUNNY   82  72  69 E7        29.93F
$$

HOURLY WEATHER ROUNDUP FOR THE NEWS MEDIA

CITY           SKY/WX    TMP DP  RH WIND       PRES   REMARKS
ORLANDO        PTSUNNY   87  64  46 E16       30.13F
NEW YORK       MOSUNNY   72  60  66 S30G38    30.11F
NEWARK         MOSUNNY   84  68  58 SE14      30.06F
CHICAGO        PTSUNNY   71  57  61 NW12      30.02R
HARTFORD       CLOUDY    69  61  75 SW20G29   30.16R
BOSTON         MOSUNNY   80  66  62 S23G32    30.06S
DALLAS         PTSUNNY   85  67  54 SE6       30.03F
PHILADELPHIA   PTSUNNY   88  67  49 SW17G25   30.10R HX  91
LOS ANGELES    MOSUNNY   66  54  65 W8        29.99F
WASHINGTON DC  PTSUNNY   77  69  76 CALM      30.12F



USA.gov is the U.S. government's official web portal to all federal, state and local government web resources and services.